GFSFLT2_925_spd_186.txt.gz
Wind_Speed
23 22 25 25 24 21 20 20 19 17 14 13 13 13 11 9 9 7 6 5 5 6 9 11 12 13 15
23 23 26 26 26 25 22 19 18 17 16 16 15 14 12 10 9 7 5 3 3 2 4 8 10 11 13
23 19 22 24 23 23 22 21 19 17 16 15 14 12 13 12 10 8 6 5 3 3 2 1 4 8 10
17 19 19 21 18 20 22 20 19 17 16 16 16 15 14 14 12 12 8 7 5 3 2 4 3 2 5
15 14 17 16 19 18 19 21 20 20 20 19 17 16 14 14 13 13 12 10 9 8 6 4 4 3 2
14 14 19 21 21 21 22 12 3 8 10 12 11 10 9 13 13 13 14 13 12 11 10 8 7 5 4
19 18 19 22 19 15 15 14 11 15 10 13 17 19 13 12 13 13 15 15 14 13 12 10 9 8 7
17 19 20 20 18 16 15 13 12 14 13 6 8 12 9 9 11 12 13 14 14 14 13 10 9 8 7
15 16 16 16 15 14 16 10 5 7 8 9 6 6 9 11 11 11 13 14 14 13 14 11 9 8 7
16 16 15 16 14 15 17 14 9 3 8 10 4 3 2 2 3 8 11 11 12 12 13 13 10 10 9
18 18 17 16 14 14 16 19 16 14 7 11 9 7 5 3 2 1 7 11 13 12 12 14 13 12 12
18 18 17 17 14 9 9 14 18 19 17 14 7 13 9 5 5 5 7 9 10 13 14 16 15 15 14
20 21 19 16 13 15 14 10 13 14 17 20 20 18 15 11 5 8 7 8 10 10 11 12 15 18 19
19 22 18 15 14 11 13 12 12 14 14 16 18 20 20 20 18 15 13 7 6 11 14 12 12 14 15
20 18 17 14 14 12 14 15 12 9 11 10 13 17 20 19 14 21 20 18 19 18 18 20 18 16 18
19 17 16 18 15 13 12 14 13 13 13 12 10 9 7 11 19 21 18 19 18 15 16 16 21 18 18
22 19 19 18 16 14 14 13 13 14 16 14 12 11 2 3 3 11 20 16 12 12 14 17 15 8 5

GFSFLT2_925_spd_189.txt.gz
Wind_Speed
22 18 21 25 28 26 25 24 24 21 19 18 17 15 15 15 14 12 10 9 6 2 3 6 8 7 12
24 21 20 21 24 26 25 23 24 22 20 19 18 17 16 15 14 13 11 10 7 5 3 4 6 8 10
20 22 20 19 18 21 21 21 22 21 21 21 19 17 16 17 15 14 11 11 9 6 5 5 5 6 8
17 19 18 17 17 16 20 21 22 19 18 19 18 18 18 17 17 15 12 11 10 8 5 4 5 5 6
15 16 18 16 13 14 18 22 23 22 24 22 22 21 21 20 19 18 16 13 12 11 8 5 4 4 5
16 15 19 19 19 18 18 12 4 10 9 9 11 13 12 14 15 16 16 16 14 13 12 9 7 5 4
20 19 17 17 17 16 16 14 11 15 13 13 17 18 16 17 15 16 17 17 16 15 14 12 10 9 7
16 17 17 17 17 18 17 16 15 17 13 6 10 13 11 11 13 14 15 17 18 17 16 14 12 11 10
20 19 19 17 16 15 17 12 7 12 14 10 8 8 10 10 12 15 15 15 17 17 17 15 12 12 10
20 18 17 18 16 17 19 14 10 4 13 12 9 6 3 3 4 8 14 14 16 16 17 17 14 12 10
20 22 20 18 17 16 17 21 16 15 9 17 10 8 7 3 3 4 7 11 15 15 15 17 16 15 12
18 19 21 23 20 19 14 13 18 22 18 14 8 14 8 4 5 7 8 10 15 17 17 18 19 17 15
13 15 18 24 19 18 14 12 15 16 17 19 20 19 16 10 5 8 7 10 13 14 16 18 21 20 17
16 17 20 20 16 17 15 13 14 16 15 13 16 20 19 20 18 12 11 7 9 12 13 14 16 18 19
17 17 18 18 16 15 15 15 13 10 12 12 10 12 16 17 12 18 16 17 18 12 10 12 15 14 14
16 16 14 13 15 17 15 14 12 12 13 15 12 7 6 10 18 15 15 15 16 17 17 15 14 18 18
18 18 18 16 15 14 15 14 12 13 14 15 14 9 3 4 3 11 15 12 12 13 16 15 8 10 11

GFSFLT2_925_spd_195.txt.gz
Wind_Speed
22 21 27 24 25 25 24 24 23 25 25 25 27 27 26 25 23 20 19 17 15 14 11 9 8 6 3
21 21 21 25 24 26 24 21 23 26 27 27 27 29 26 26 25 23 21 20 18 16 14 10 7 4 1
23 21 20 16 22 24 25 24 25 26 25 25 23 23 25 27 27 25 23 21 19 17 15 11 9 6 3
21 18 21 23 24 24 22 19 21 23 27 27 26 26 28 29 26 25 23 23 21 18 16 13 10 8 7
22 21 19 18 18 20 23 20 23 23 26 21 19 19 19 20 21 26 25 24 23 19 16 14 12 11 9
22 20 20 20 21 22 20 19 8 16 18 19 15 19 24 20 19 21 21 25 24 21 18 16 14 14 12
24 23 22 21 20 21 20 19 21 22 20 22 19 24 24 20 18 20 20 21 22 22 20 18 15 14 14
25 26 24 21 20 23 25 24 25 25 23 14 16 21 21 21 18 20 20 20 22 21 21 20 18 15 15
25 26 25 22 23 22 19 13 10 13 15 20 15 20 22 21 20 19 16 18 19 21 21 21 20 17 15
25 25 24 21 26 22 22 15 11 9 10 12 17 12 6 8 12 16 14 14 15 17 20 21 21 18 16
26 24 22 24 19 20 17 18 16 16 19 17 8 7 6 5 4 7 6 7 11 16 18 22 24 19 16
22 20 19 18 16 18 17 21 24 27 23 19 10 11 8 4 4 4 7 8 8 11 16 20 23 21 15
19 19 16 15 15 20 21 21 21 20 20 17 15 20 20 12 4 7 4 6 10 13 15 19 23 24 20
21 20 14 18 20 20 16 17 19 18 15 12 10 13 17 19 19 13 12 4 7 13 17 19 18 18 24
19 19 20 19 18 17 16 16 15 16 16 19 14 12 15 16 11 17 16 15 15 11 14 15 18 20 20
18 17 18 18 17 17 17 15 14 15 15 17 13 11 10 10 15 17 14 15 15 16 16 14 15 17 18
20 17 18 17 17 17 16 15 15 15 14 15 14 9 5 6 4 9 15 12 13 16 18 16 9 14 16

GFSFLT2_925_spd_201.txt.gz
Wind_Speed
21 22 26 27 27 25 28 30 31 33 32 26 26 27 27 26 25 25 25 26 25 24 23 22 20 19 17
22 24 25 26 25 19 29 31 32 30 27 24 24 23 26 30 29 26 26 26 26 26 24 23 21 20 18
23 23 23 26 26 25 30 29 26 26 28 28 24 25 28 29 29 29 30 29 31 28 27 25 23 21 20
21 20 21 24 23 23 22 21 26 30 28 27 28 28 26 28 28 27 25 24 25 27 28 27 26 23 21
18 19 20 21 21 25 23 23 26 25 25 24 27 34 32 29 31 32 30 33 32 28 27 28 28 24 20
18 18 22 22 23 24 23 18 6 20 15 30 22 28 30 28 31 32 31 27 26 28 27 27 30 27 21
23 22 24 24 25 25 22 20 19 27 21 21 22 25 26 30 29 31 32 32 27 24 28 28 33 30 24
24 28 26 24 24 26 27 22 22 26 18 15 19 24 25 33 30 26 27 29 28 24 26 27 32 32 27
24 23 23 24 23 24 22 16 15 16 16 12 12 24 27 29 23 17 28 25 15 16 21 24 30 32 27
26 25 24 23 19 20 19 13 13 8 2 9 17 19 10 21 20 23 24 26 22 15 19 19 21 25 25
25 23 21 17 21 17 12 9 11 15 19 14 19 21 15 14 14 23 20 27 24 19 15 16 22 26 28
22 20 17 18 19 16 15 17 15 17 21 18 17 19 20 15 13 17 24 27 23 22 17 13 15 18 26
22 20 17 18 16 17 22 18 19 18 18 19 20 22 20 13 14 18 20 18 25 19 13 10 12 12 24
23 21 19 18 19 21 23 22 21 19 18 19 21 18 19 18 18 19 22 12 20 20 17 11 9 9 20
22 18 19 18 19 20 21 21 18 21 22 22 16 17 18 18 17 19 20 19 20 17 15 12 7 8 18
15 18 21 18 17 17 18 21 20 21 22 23 20 17 15 14 13 19 17 16 17 15 12 9 12 11 9
16 16 19 17 15 16 18 16 17 18 19 22 21 14 6 6 12 11 13 17 17 14 11 11 8 11 12

GFSFLT2_925_spd_204.txt.gz
Wind_Speed
21 25 24 22 24 24 21 25 30 30 25 23 22 23 25 25 24 27 27 26 25 25 25 26 28 26 24
21 24 24 25 23 23 23 24 26 28 28 24 24 24 23 24 27 26 26 26 28 29 28 29 29 29 26
21 24 23 24 26 28 29 27 25 27 26 27 25 23 22 23 24 26 28 27 27 25 25 26 28 29 28
21 20 19 22 24 24 23 26 27 29 30 25 22 25 31 27 25 28 30 29 28 27 27 29 30 30 29
19 19 20 21 21 24 25 24 27 26 23 22 25 34 33 31 28 28 26 28 29 28 28 27 30 33 30
21 18 17 22 24 23 22 19 13 22 11 28 28 32 31 27 26 26 28 30 31 30 29 30 30 31 29
21 23 23 25 26 25 21 21 23 28 19 24 29 28 27 27 31 31 27 24 24 27 28 29 30 30 31
23 23 24 26 24 25 25 27 25 23 20 14 21 23 24 33 33 23 22 23 28 28 27 24 29 29 30
23 24 25 22 21 21 21 18 17 18 17 16 12 23 29 32 23 25 24 27 26 27 27 26 22 21 29
27 24 24 22 20 15 20 15 16 10 4 14 22 15 10 23 20 28 29 29 26 28 26 24 22 22 26
27 25 23 21 17 18 16 14 14 16 22 16 18 18 13 21 23 27 25 26 32 27 27 25 21 19 16
25 26 26 19 16 15 13 16 19 23 24 19 19 23 19 21 20 23 27 28 26 25 25 27 21 16 13
23 23 26 20 15 14 17 20 21 20 18 18 20 24 18 19 21 22 24 21 23 25 31 25 22 14 9
25 27 26 18 16 19 19 19 21 19 15 17 18 20 19 18 21 23 22 13 26 29 25 21 20 9 5
25 24 22 19 19 17 17 17 17 18 22 20 18 17 18 18 19 19 19 20 23 24 20 19 17 11 6
24 22 18 18 19 15 14 16 19 20 20 19 19 21 16 18 11 17 17 16 21 22 18 13 13 13 4
18 14 15 16 17 16 16 16 16 17 20 18 18 16 5 8 11 9 17 21 20 18 15 11 11 13 10

GFSFLT2_925_spd_207.txt.gz
Wind_Speed
16 22 22 21 22 21 23 25 25 26 25 22 21 21 22 23 22 23 23 23 25 26 25 27 30 30 29
19 23 23 22 21 25 28 26 23 24 26 26 25 22 21 20 23 26 26 27 26 27 28 28 27 28 28
19 22 22 20 24 25 26 25 24 24 25 25 25 23 20 23 27 26 26 27 26 26 27 28 28 28 29
22 22 19 23 20 21 22 26 25 27 28 26 24 24 29 30 27 25 24 24 25 27 28 28 28 30 30
19 19 21 20 21 20 24 22 21 24 25 23 27 34 31 29 28 25 23 28 29 28 27 26 28 30 31
21 18 21 22 20 23 23 17 13 13 21 28 23 31 32 28 27 25 29 30 24 25 25 29 30 30 31
19 22 23 21 21 24 23 20 19 22 21 26 23 26 25 26 34 31 29 24 23 25 28 29 31 31 31
20 21 21 21 22 24 23 22 26 23 17 19 23 25 26 39 36 26 23 24 26 28 29 29 32 32 31
21 20 22 21 21 21 20 16 17 19 20 19 12 27 27 30 25 23 26 27 28 28 28 31 31 31 30
22 22 23 23 23 19 18 16 14 14 6 11 21 16 11 21 25 30 29 28 26 30 30 28 27 30 28
23 26 25 27 27 22 17 16 14 17 22 19 19 17 13 20 27 30 28 30 33 30 27 30 31 26 29
23 26 26 29 26 20 17 15 15 21 25 22 17 18 16 22 19 26 29 25 28 29 29 33 31 27 24
20 22 25 27 24 22 19 17 21 21 21 19 18 23 22 17 19 26 29 26 25 25 30 30 30 26 26
23 26 26 26 26 22 22 21 20 23 19 17 19 20 20 19 20 25 25 16 28 28 28 29 27 23 22
22 23 24 23 21 21 18 21 16 19 23 22 17 17 19 20 19 26 25 21 22 27 28 24 23 21 21
20 20 19 18 16 16 16 16 17 17 19 21 21 20 18 17 15 20 17 19 24 24 25 19 19 23 19
20 20 22 21 18 18 18 16 17 16 19 20 18 12 4 5 13 11 17 24 22 23 19 19 18 23 18

GFSFLT2_925_spd_213.txt.gz
Wind_Speed
11 16 18 17 17 16 15 17 17 20 22 23 23 23 23 22 21 21 22 23 25 24 23 23 24 25 26
11 11 15 18 17 17 15 17 17 21 22 20 20 19 21 23 22 22 24 23 23 23 22 23 26 27 27
13 11 13 15 15 16 18 18 20 22 24 21 16 19 22 21 20 20 20 20 20 22 25 27 28 26 26
13 13 13 15 17 15 16 14 17 21 23 16 19 25 24 22 19 20 18 18 24 27 27 26 25 25 26
15 14 16 17 18 17 17 18 17 16 15 16 22 24 23 21 20 18 21 25 26 24 25 25 25 26 27
14 16 17 18 19 18 17 17 12 15 15 26 21 25 25 21 21 21 28 24 21 24 28 30 29 28 28
16 18 20 18 18 18 19 17 20 23 16 23 20 24 23 20 23 27 22 20 24 27 28 29 28 28 28
21 22 23 23 22 21 20 19 19 22 15 15 21 23 21 25 26 18 18 21 26 27 30 29 27 28 30
19 19 19 20 21 19 15 17 17 22 18 13 16 21 23 22 16 17 21 22 26 28 28 26 25 27 29
19 22 21 20 20 19 19 17 19 16 14 8 16 12 10 15 22 24 18 24 27 30 26 24 25 28 30
15 15 17 17 18 20 20 16 17 20 22 16 12 12 10 19 22 24 24 27 33 29 23 25 27 27 30
12 14 14 16 19 20 21 22 22 24 25 19 12 15 18 21 21 26 26 26 25 24 24 28 27 29 29
12 14 16 18 19 21 21 21 20 19 18 22 24 21 18 16 20 25 28 27 26 21 28 27 30 31 34
11 15 15 16 19 17 19 22 18 18 17 14 13 15 19 20 19 24 26 17 25 29 26 29 28 29 29
14 15 16 16 16 16 19 16 12 14 16 18 14 16 21 23 16 22 22 22 24 25 27 28 30 29 27
16 17 17 17 18 20 17 14 15 14 14 15 18 16 16 16 17 19 22 21 23 24 25 23 27 31 28
18 20 20 19 20 19 17 15 16 15 16 15 15 8 7 9 20 13 15 23 23 22 21 22 24 31 28

GFSFLT2_925_spd_216.txt.gz
Wind_Speed
10 12 15 15 16 15 15 15 16 18 21 21 22 22 20 19 21 21 21 20 21 22 23 23 24 25 27
12 12 14 15 16 17 16 15 16 17 18 20 19 19 18 22 23 22 21 21 21 21 21 23 25 27 28
14 13 14 15 16 16 16 16 16 17 19 19 19 18 20 22 21 21 19 20 19 21 25 27 28 28 28
14 15 14 15 15 16 17 17 18 18 20 17 18 18 22 22 21 20 19 17 21 24 24 24 25 27 28
14 15 15 15 16 18 19 19 18 17 17 17 21 22 22 21 21 18 20 22 25 22 21 25 27 28 29
14 15 17 17 19 18 19 19 15 15 17 23 21 24 25 22 22 22 24 26 21 20 24 26 28 30 30
14 15 16 17 18 20 20 19 19 20 23 24 22 23 23 22 23 26 25 20 21 22 26 27 28 29 28
14 16 16 17 18 19 21 22 19 18 19 21 23 25 24 22 24 22 20 22 24 25 27 28 30 28 28
14 17 17 18 18 19 19 18 20 21 21 23 22 22 23 25 18 18 24 23 24 28 29 30 27 27 29
13 13 13 13 13 12 15 16 18 18 16 15 19 21 12 18 17 23 23 27 26 28 29 27 24 28 29
13 12 11 10 10 11 13 15 17 20 23 21 17 18 16 20 19 23 25 27 30 27 27 24 25 27 29
11 11 10 12 13 14 16 16 17 22 26 22 21 20 21 23 21 21 27 26 26 29 26 26 28 27 28
9 10 11 13 15 17 17 18 21 22 18 16 18 21 21 15 17 24 28 29 26 19 28 26 28 31 33
9 11 13 15 16 16 17 20 20 20 19 21 18 17 17 18 20 26 26 19 27 26 27 29 28 29 29
10 11 14 16 17 17 19 19 18 19 21 20 18 18 19 22 21 22 23 23 24 25 26 28 28 29 30
12 14 15 16 18 18 17 17 18 18 18 19 19 17 17 18 19 24 21 23 25 27 25 24 30 33 30
16 17 18 18 17 16 16 16 17 18 19 18 15 14 8 9 18 15 16 24 26 23 23 24 28 35 33